Time,TemperatureF,DewpointF,PressureIn,WindDirection,WindDirectionDegrees,WindSpeedMPH,WindSpeedGustMPH,Humidity,HourlyPrecipIn,Conditions,Clouds,dailyrainin,SoftwareType,DateUTC
2013-05-01 00:01:00,56.9,44.8,29.81,SW,225,6.0,7.2,64,0.00,,,0.00,WUHU216HW,2013-05-01 05:01:00,
2013-05-01 00:06:00,56.5,44.8,29.81,West,270,4.7,7.2,65,0.00,,,0.00,WUHU216HW,2013-05-01 05:06:00,
2013-05-01 00:11:00,56.2,44.9,29.81,SSE,158,4.3,7.8,66,0.00,,,0.00,WUHU216HW,2013-05-01 05:11:00,
2013-05-01 00:16:00,55.8,44.6,29.82,ENE,68,4.0,7.8,66,0.00,,,0.00,WUHU216HW,2013-05-01 05:16:00,
2013-05-01 00:21:00,55.6,44.4,29.82,NW,315,3.4,5.4,66,0.00,,,0.00,WUHU216HW,2013-05-01 05:21:00,
2013-05-01 00:26:00,55.3,44.1,29.82,ESE,113,2.7,5.4,66,0.00,,,0.00,WUHU216HW,2013-05-01 05:26:00,
2013-05-01 00:31:00,55.1,43.9,29.82,SSW,203,1.6,3.4,66,0.00,,,0.00,WUHU216HW,2013-05-01 05:31:00,
2013-05-01 00:36:00,55.1,44.3,29.81,South,180,2.2,3.8,67,0.00,,,0.00,WUHU216HW,2013-05-01 05:36:00,
2013-05-01 00:41:00,54.9,44.6,29.81,NE,45,0.9,3.8,68,0.00,,,0.00,WUHU216HW,2013-05-01 05:41:00,
2013-05-01 00:46:00,54.7,44.4,29.82,North,0,3.4,3.4,68,0.00,,,0.00,WUHU216HW,2013-05-01 05:46:00,
2013-05-01 00:51:00,54.7,44.4,29.81,North,0,1.8,3.4,68,0.00,,,0.00,WUHU216HW,2013-05-01 05:51:00,
2013-05-01 00:56:00,54.4,44.5,29.81,North,0,1.8,3.4,69,0.00,,,0.00,WUHU216HW,2013-05-01 05:56:00,
2013-05-01 01:01:00,54.4,44.5,29.81,North,0,1.8,3.4,69,0.00,,,0.00,WUHU216HW,2013-05-01 06:01:00,
2013-05-01 01:06:00,54.4,44.8,29.82,North,0,1.1,3.4,70,0.00,,,0.00,WUHU216HW,2013-05-01 06:06:00,
2013-05-01 01:11:00,54.4,44.8,29.82,North,0,1.8,3.4,70,0.00,,,0.00,WUHU216HW,2013-05-01 06:11:00,
2013-05-01 01:16:00,54.4,44.8,29.83,North,0,2.7,3.1,70,0.00,,,0.00,WUHU216HW,2013-05-01 06:16:00,
2013-05-01 01:21:00,54.2,44.6,29.83,NNE,23,1.1,4.0,70,0.00,,,0.00,WUHU216HW,2013-05-01 06:21:00,
2013-05-01 01:26:00,54.0,44.5,29.83,North,0,1.6,4.0,70,0.00,,,0.00,WUHU216HW,2013-05-01 06:26:00,
2013-05-01 01:31:00,54.0,44.8,29.82,South,180,1.6,2.5,71,0.00,,,0.00,WUHU216HW,2013-05-01 06:31:00,
2013-05-01 01:36:00,53.6,45.2,29.81,North,0,1.1,2.5,73,0.00,,,0.00,WUHU216HW,2013-05-01 06:36:00,
2013-05-01 01:41:00,53.6,45.2,29.82,North,0,2.5,2.5,73,0.00,,,0.00,WUHU216HW,2013-05-01 06:41:00,
2013-05-01 01:46:00,53.5,44.6,29.82,North,0,0.4,2.9,72,0.00,,,0.00,WUHU216HW,2013-05-01 06:46:00,
2013-05-01 01:51:00,53.3,44.1,29.81,North,0,0.4,2.9,71,0.00,,,0.00,WUHU216HW,2013-05-01 06:51:00,
2013-05-01 01:56:00,53.1,44.0,29.82,North,0,2.5,2.9,71,0.00,,,0.00,WUHU216HW,2013-05-01 06:56:00,
2013-05-01 02:01:00,53.1,44.3,29.81,North,0,1.1,2.9,72,0.00,,,0.00,WUHU216HW,2013-05-01 07:01:00,
2013-05-01 02:06:00,52.9,44.2,29.81,North,0,1.6,2.0,72,0.00,,,0.00,WUHU216HW,2013-05-01 07:06:00,
2013-05-01 02:11:00,52.7,44.0,29.81,North,0,0.7,2.0,72,0.00,,,0.00,WUHU216HW,2013-05-01 07:11:00,
2013-05-01 02:16:00,52.6,43.8,29.81,North,0,2.5,2.5,72,0.00,,,0.00,WUHU216HW,2013-05-01 07:16:00,
2013-05-01 02:21:00,52.4,44.0,29.82,South,180,2.0,3.1,73,0.00,,,0.00,WUHU216HW,2013-05-01 07:21:00,
2013-05-01 02:26:00,52.2,43.8,29.83,SW,225,1.6,3.1,73,0.00,,,0.00,WUHU216HW,2013-05-01 07:26:00,
2013-05-01 02:31:00,52.2,43.5,29.83,South,180,0.4,2.2,72,0.00,,,0.00,WUHU216HW,2013-05-01 07:31:00,
2013-05-01 02:36:00,52.0,43.3,29.83,South,180,0.2,1.1,72,0.00,,,0.00,WUHU216HW,2013-05-01 07:36:00,
2013-05-01 02:41:00,51.8,43.5,29.83,South,180,1.6,1.8,73,0.00,,,0.00,WUHU216HW,2013-05-01 07:41:00,
2013-05-01 02:46:00,51.7,43.3,29.84,South,180,0.0,1.8,73,0.00,,,0.00,WUHU216HW,2013-05-01 07:46:00,
2013-05-01 02:51:00,51.5,43.1,29.84,South,180,1.1,1.8,73,0.00,,,0.00,WUHU216HW,2013-05-01 07:51:00,
2013-05-01 02:56:00,51.1,42.8,29.84,South,180,0.9,1.6,73,0.00,,,0.00,WUHU216HW,2013-05-01 07:56:00,
2013-05-01 03:00:00,50.9,42.9,29.84,South,180,0.7,1.1,74,0.00,,,0.00,WUHU216HW,2013-05-01 08:00:00,
2013-05-01 03:05:00,50.8,42.8,29.84,South,180,0.7,0.9,74,0.00,,,0.00,WUHU216HW,2013-05-01 08:05:00,
2013-05-01 03:10:00,50.8,43.1,29.84,South,180,0.4,1.8,75,0.00,,,0.00,WUHU216HW,2013-05-01 08:10:00,
2013-05-01 03:15:00,50.8,43.1,29.85,South,180,0.4,1.8,75,0.00,,,0.00,WUHU216HW,2013-05-01 08:15:00,
2013-05-01 03:20:00,50.6,42.9,29.85,South,180,0.9,2.0,75,0.00,,,0.00,WUHU216HW,2013-05-01 08:20:00,
2013-05-01 03:25:00,50.6,42.9,29.85,South,180,0.4,2.0,75,0.00,,,0.00,WUHU216HW,2013-05-01 08:25:00,
2013-05-01 03:30:00,50.4,42.8,29.86,South,180,0.0,1.1,75,0.00,,,0.00,WUHU216HW,2013-05-01 08:30:00,
2013-05-01 03:35:00,50.0,42.4,29.86,South,180,0.7,1.1,75,0.00,,,0.00,WUHU216HW,2013-05-01 08:35:00,
2013-05-01 03:40:00,50.0,42.8,29.86,South,180,0.0,0.9,76,0.00,,,0.00,WUHU216HW,2013-05-01 08:40:00,
2013-05-01 03:45:00,49.7,42.4,29.86,South,180,0.4,0.7,76,0.00,,,0.00,WUHU216HW,2013-05-01 08:45:00,
2013-05-01 03:50:00,49.7,42.8,29.86,South,180,0.2,0.7,77,0.00,,,0.00,WUHU216HW,2013-05-01 08:50:00,
2013-05-01 03:55:00,49.5,42.6,29.86,South,180,0.0,0.4,77,0.00,,,0.00,WUHU216HW,2013-05-01 08:55:00,
2013-05-01 04:00:00,49.5,42.6,29.87,South,180,1.1,1.3,77,0.00,,,0.00,WUHU216HW,2013-05-01 09:00:00,
2013-05-01 04:05:00,49.3,42.7,29.87,South,180,0.9,1.3,78,0.00,,,0.00,WUHU216HW,2013-05-01 09:05:00,
2013-05-01 04:10:00,49.3,42.7,29.87,South,180,1.1,1.1,78,0.00,,,0.00,WUHU216HW,2013-05-01 09:10:00,
2013-05-01 04:15:00,49.1,42.5,29.88,South,180,1.3,2.5,78,0.00,,,0.00,WUHU216HW,2013-05-01 09:15:00,
2013-05-01 04:20:00,49.1,42.8,29.88,NW,315,1.1,3.4,79,0.00,,,0.00,WUHU216HW,2013-05-01 09:20:00,
2013-05-01 04:25:00,49.3,43.4,29.88,West,270,0.7,3.4,80,0.00,,,0.00,WUHU216HW,2013-05-01 09:25:00,
2013-05-01 04:30:00,49.3,43.0,29.89,West,270,0.7,1.6,79,0.00,,,0.00,WUHU216HW,2013-05-01 09:30:00,
2013-05-01 04:35:00,49.3,43.4,29.89,WSW,248,1.8,2.2,80,0.00,,,0.00,WUHU216HW,2013-05-01 09:35:00,
2013-05-01 04:40:00,49.5,43.6,29.88,SSW,203,2.0,3.4,80,0.00,,,0.00,WUHU216HW,2013-05-01 09:40:00,
2013-05-01 04:45:00,49.5,43.6,29.89,WNW,293,3.1,3.4,80,0.00,,,0.00,WUHU216HW,2013-05-01 09:45:00,
2013-05-01 04:50:00,49.3,43.7,29.89,North,0,3.6,3.8,81,0.00,,,0.00,WUHU216HW,2013-05-01 09:50:00,
2013-05-01 04:55:00,49.5,44.2,29.89,SW,225,4.5,4.7,82,0.00,,,0.00,WUHU216HW,2013-05-01 09:55:00,
2013-05-01 05:00:00,49.5,44.2,29.89,North,0,2.2,4.9,82,0.00,,,0.00,WUHU216HW,2013-05-01 10:00:00,
2013-05-01 05:05:00,49.5,44.2,29.89,South,180,2.7,4.9,82,0.00,,,0.00,WUHU216HW,2013-05-01 10:05:00,
2013-05-01 05:10:00,49.3,44.0,29.90,ESE,113,2.2,3.1,82,0.00,,,0.00,WUHU216HW,2013-05-01 10:10:00,
2013-05-01 05:15:00,49.3,44.0,29.90,ENE,68,3.1,3.4,82,0.00,,,0.00,WUHU216HW,2013-05-01 10:15:00,
2013-05-01 05:20:00,49.3,43.7,29.90,SW,225,1.8,3.4,81,0.00,,,0.00,WUHU216HW,2013-05-01 10:20:00,
2013-05-01 05:25:00,49.5,44.2,29.90,NE,45,1.8,2.7,82,0.00,,,0.00,WUHU216HW,2013-05-01 10:25:00,
2013-05-01 05:30:00,49.5,44.2,29.90,NNE,23,2.0,2.7,82,0.00,,,0.00,WUHU216HW,2013-05-01 10:30:00,
2013-05-01 05:35:00,49.3,44.0,29.90,WSW,248,1.3,2.5,82,0.00,,,0.00,WUHU216HW,2013-05-01 10:35:00,
2013-05-01 05:40:00,49.1,43.8,29.90,WSW,248,1.8,2.5,82,0.00,,,0.00,WUHU216HW,2013-05-01 10:40:00,
2013-05-01 05:45:00,49.0,43.7,29.90,SW,225,1.1,2.7,82,0.00,,,0.00,WUHU216HW,2013-05-01 10:45:00,
2013-05-01 05:50:00,48.8,43.2,29.91,SW,225,0.0,2.7,81,0.00,,,0.00,WUHU216HW,2013-05-01 10:50:00,
2013-05-01 05:55:00,48.6,43.0,29.91,SW,225,0.0,1.1,81,0.00,,,0.00,WUHU216HW,2013-05-01 10:55:00,
2013-05-01 06:00:00,48.4,42.9,29.92,SW,225,1.3,1.3,81,0.00,,,0.00,WUHU216HW,2013-05-01 11:00:00,
2013-05-01 06:05:00,48.4,43.1,29.92,SSW,203,2.2,2.7,82,0.00,,,0.00,WUHU216HW,2013-05-01 11:05:00,
2013-05-01 06:10:00,48.4,43.5,29.93,South,180,3.1,3.1,83,0.00,,,0.00,WUHU216HW,2013-05-01 11:10:00,
2013-05-01 06:15:00,48.6,43.7,29.93,South,180,1.1,3.4,83,0.00,,,0.00,WUHU216HW,2013-05-01 11:15:00,
2013-05-01 06:20:00,48.8,44.1,29.93,SW,225,2.7,3.4,84,0.00,,,0.00,WUHU216HW,2013-05-01 11:20:00,
2013-05-01 06:25:00,48.8,44.1,29.94,ESE,113,3.4,4.5,84,0.00,,,0.00,WUHU216HW,2013-05-01 11:25:00,
2013-05-01 06:30:00,48.8,43.8,29.94,NNW,338,2.2,4.5,83,0.00,,,0.00,WUHU216HW,2013-05-01 11:30:00,
2013-05-01 06:35:00,48.8,44.1,29.94,NW,315,2.2,3.8,84,0.00,,,0.00,WUHU216HW,2013-05-01 11:35:00,
2013-05-01 06:40:00,49.0,44.3,29.94,North,0,2.0,4.5,84,0.00,,,0.00,WUHU216HW,2013-05-01 11:40:00,
2013-05-01 06:45:00,49.0,44.0,29.94,North,0,1.8,4.5,83,0.00,,,0.00,WUHU216HW,2013-05-01 11:45:00,
2013-05-01 06:50:00,49.0,44.3,29.95,North,0,3.1,4.0,84,0.00,,,0.00,WUHU216HW,2013-05-01 11:50:00,
2013-05-01 06:55:00,49.1,44.1,29.95,North,0,1.1,3.6,83,0.00,,,0.00,WUHU216HW,2013-05-01 11:55:00,
2013-05-01 07:00:00,49.1,44.1,29.95,North,0,2.5,3.6,83,0.00,,,0.00,WUHU216HW,2013-05-01 12:00:00,
2013-05-01 07:05:00,49.3,44.0,29.95,North,0,3.4,3.4,82,0.00,,,0.00,WUHU216HW,2013-05-01 12:05:00,
2013-05-01 07:10:00,49.3,44.0,29.95,North,0,2.2,3.4,82,0.00,,,0.00,WUHU216HW,2013-05-01 12:10:00,
2013-05-01 07:15:00,49.7,44.4,29.96,North,0,2.5,3.6,82,0.00,,,0.00,WUHU216HW,2013-05-01 12:15:00,
2013-05-01 07:20:00,49.7,44.4,29.96,North,0,2.2,4.5,82,0.00,,,0.00,WUHU216HW,2013-05-01 12:20:00,
2013-05-01 07:25:00,50.0,44.4,29.96,NNE,23,3.4,4.5,81,0.00,,,0.00,WUHU216HW,2013-05-01 12:25:00,
2013-05-01 07:30:00,50.4,44.5,29.97,North,0,3.4,3.8,80,0.00,,,0.00,WUHU216HW,2013-05-01 12:30:00,
2013-05-01 07:35:00,50.8,44.1,29.97,North,0,1.8,3.8,78,0.00,,,0.00,WUHU216HW,2013-05-01 12:35:00,
2013-05-01 07:40:00,50.8,44.1,29.97,North,0,2.0,3.1,78,0.00,,,0.00,WUHU216HW,2013-05-01 12:40:00,
2013-05-01 07:45:00,51.1,44.2,29.97,North,0,1.1,3.4,77,0.00,,,0.00,WUHU216HW,2013-05-01 12:45:00,
2013-05-01 07:50:00,51.3,44.0,29.97,North,0,1.1,3.4,76,0.00,,,0.00,WUHU216HW,2013-05-01 12:50:00,
2013-05-01 07:55:00,51.5,43.8,29.98,North,0,2.7,3.8,75,0.00,,,0.00,WUHU216HW,2013-05-01 12:55:00,
2013-05-01 08:00:00,51.7,44.0,29.98,North,0,2.5,3.8,75,0.00,,,0.00,WUHU216HW,2013-05-01 13:00:00,
2013-05-01 08:05:00,52.2,43.8,29.99,ENE,68,4.0,4.7,73,0.00,,,0.00,WUHU216HW,2013-05-01 13:05:00,
2013-05-01 08:10:00,52.6,44.2,29.99,South,180,5.8,5.8,73,0.00,,,0.00,WUHU216HW,2013-05-01 13:10:00,
2013-05-01 08:15:00,53.1,44.6,29.99,North,0,4.0,5.8,73,0.00,,,0.00,WUHU216HW,2013-05-01 13:15:00,
2013-05-01 08:20:00,53.5,45.0,29.99,NNW,338,1.8,4.7,73,0.00,,,0.00,WUHU216HW,2013-05-01 13:20:00,
2013-05-01 08:25:00,53.5,44.6,29.99,North,0,4.7,6.0,72,0.00,,,0.00,WUHU216HW,2013-05-01 13:25:00,
2013-05-01 08:30:00,54.0,44.8,29.99,WSW,248,3.4,6.0,71,0.00,,,0.00,WUHU216HW,2013-05-01 13:30:00,
2013-05-01 08:35:00,54.5,44.6,29.99,South,180,2.2,5.4,69,0.00,,,0.00,WUHU216HW,2013-05-01 13:35:00,
2013-05-01 08:40:00,54.9,44.1,29.99,East,90,1.6,5.4,67,0.00,,,0.00,WUHU216HW,2013-05-01 13:40:00,
2013-05-01 08:45:00,55.1,43.9,29.99,North,0,4.9,4.9,66,0.00,,,0.00,WUHU216HW,2013-05-01 13:45:00,
2013-05-01 08:50:00,55.4,43.8,30.00,North,0,4.3,4.9,65,0.00,,,0.00,WUHU216HW,2013-05-01 13:50:00,
2013-05-01 08:55:00,55.4,43.4,30.00,SSE,158,2.5,4.5,64,0.00,,,0.00,WUHU216HW,2013-05-01 13:55:00,
2013-05-01 09:00:00,55.8,44.2,29.99,South,180,1.8,4.9,65,0.00,,,0.00,WUHU216HW,2013-05-01 14:00:00,
2013-05-01 09:05:00,56.2,44.1,29.99,ENE,68,2.9,4.9,64,0.00,,,0.00,WUHU216HW,2013-05-01 14:05:00,
2013-05-01 09:10:00,56.3,44.3,29.99,NW,315,3.6,4.7,64,0.00,,,0.00,WUHU216HW,2013-05-01 14:10:00,
2013-05-01 09:15:00,56.5,44.0,29.99,SE,135,3.4,4.0,63,0.00,,,0.00,WUHU216HW,2013-05-01 14:15:00,
2013-05-01 09:20:00,56.7,43.8,29.99,SSE,158,3.4,4.7,62,0.00,,,0.00,WUHU216HW,2013-05-01 14:20:00,
2013-05-01 09:25:00,56.5,43.7,29.99,South,180,4.5,6.0,62,0.00,,,0.00,WUHU216HW,2013-05-01 14:25:00,
2013-05-01 09:30:00,56.9,44.0,29.99,WNW,293,3.1,6.0,62,0.00,,,0.00,WUHU216HW,2013-05-01 14:30:00,
2013-05-01 09:35:00,57.2,44.4,29.99,North,0,2.9,4.0,62,0.00,,,0.00,WUHU216HW,2013-05-01 14:35:00,
2013-05-01 09:40:00,57.2,43.9,29.99,WNW,293,4.9,5.4,61,0.00,,,0.00,WUHU216HW,2013-05-01 14:40:00,
2013-05-01 09:45:00,57.2,43.9,29.99,North,0,3.1,5.4,61,0.00,,,0.00,WUHU216HW,2013-05-01 14:45:00,
2013-05-01 09:50:00,57.4,44.6,29.99,NNW,338,1.8,4.7,62,0.00,,,0.00,WUHU216HW,2013-05-01 14:50:00,
2013-05-01 09:55:00,57.4,44.1,29.99,SW,225,6.9,6.9,61,0.00,,,0.00,WUHU216HW,2013-05-01 14:55:00,
2013-05-01 10:00:00,57.8,44.5,29.99,SSW,203,3.6,6.9,61,0.00,,,0.00,WUHU216HW,2013-05-01 15:00:00,
2013-05-01 10:05:00,58.0,44.7,29.99,North,0,3.8,3.8,61,0.00,,,0.00,WUHU216HW,2013-05-01 15:05:00,
2013-05-01 10:10:00,58.0,44.2,29.99,North,0,4.3,5.6,60,0.00,,,0.00,WUHU216HW,2013-05-01 15:10:00,
2013-05-01 10:15:00,58.0,45.0,29.99,North,0,4.0,6.3,62,0.00,,,0.00,WUHU216HW,2013-05-01 15:15:00,
2013-05-01 10:20:00,58.3,44.9,30.00,North,0,2.7,6.3,61,0.00,,,0.00,WUHU216HW,2013-05-01 15:20:00,
2013-05-01 10:25:00,58.5,44.7,30.00,North,0,3.4,5.6,60,0.00,,,0.00,WUHU216HW,2013-05-01 15:25:00,
2013-05-01 10:30:00,58.9,45.0,30.00,WNW,293,3.6,5.6,60,0.00,,,0.00,WUHU216HW,2013-05-01 15:30:00,
2013-05-01 10:35:00,59.0,44.7,30.00,North,0,0.4,3.6,59,0.00,,,0.00,WUHU216HW,2013-05-01 15:35:00,
2013-05-01 10:40:00,59.2,45.4,30.00,North,0,3.1,3.1,60,0.00,,,0.00,WUHU216HW,2013-05-01 15:40:00,
2013-05-01 10:45:00,59.4,45.1,30.00,North,0,3.1,4.9,59,0.00,,,0.00,WUHU216HW,2013-05-01 15:45:00,
2013-05-01 10:50:00,59.8,45.9,29.99,North,0,4.0,8.1,60,0.00,,,0.00,WUHU216HW,2013-05-01 15:50:00,
2013-05-01 10:55:00,59.8,45.9,30.00,North,0,0.4,8.1,60,0.00,,,0.00,WUHU216HW,2013-05-01 15:55:00,
2013-05-01 11:00:00,60.1,46.7,29.99,ENE,68,2.7,4.0,61,0.00,,,0.00,WUHU216HW,2013-05-01 16:00:00,
2013-05-01 11:05:00,60.1,45.8,29.99,WNW,293,4.3,4.3,59,0.00,,,0.00,WUHU216HW,2013-05-01 16:05:00,
2013-05-01 11:10:00,59.8,45.5,29.99,SW,225,3.4,6.0,59,0.00,,,0.00,WUHU216HW,2013-05-01 16:10:00,
2013-05-01 11:15:00,59.8,45.5,29.99,South,180,1.8,6.0,59,0.00,,,0.00,WUHU216HW,2013-05-01 16:15:00,
2013-05-01 11:20:00,60.1,45.8,29.99,NW,315,3.6,3.6,59,0.00,,,0.00,WUHU216HW,2013-05-01 16:20:00,
2013-05-01 11:25:00,60.5,45.6,29.99,ENE,68,2.0,4.0,58,0.00,,,0.00,WUHU216HW,2013-05-01 16:25:00,
2013-05-01 11:30:00,60.7,45.8,29.99,SE,135,6.0,6.0,58,0.00,,,0.00,WUHU216HW,2013-05-01 16:30:00,
2013-05-01 11:35:00,61.2,46.4,29.99,North,0,1.3,6.0,58,0.00,,,0.00,WUHU216HW,2013-05-01 16:35:00,
2013-05-01 11:40:00,61.6,45.7,29.99,West,270,5.4,5.4,56,0.00,,,0.00,WUHU216HW,2013-05-01 16:40:00,
2013-05-01 11:45:00,62.8,46.8,29.99,NE,45,3.4,6.5,56,0.00,,,0.00,WUHU216HW,2013-05-01 16:45:00,
2013-05-01 11:50:00,64.4,46.8,29.99,NNE,23,1.1,6.5,53,0.00,,,0.00,WUHU216HW,2013-05-01 16:50:00,
2013-05-01 11:55:00,65.5,46.9,29.99,North,0,3.8,4.0,51,0.00,,,0.00,WUHU216HW,2013-05-01 16:55:00,
2013-05-01 12:00:00,66.2,46.5,29.99,NW,315,4.9,4.9,49,0.00,,,0.00,WUHU216HW,2013-05-01 17:00:00,
2013-05-01 12:05:00,67.0,47.3,29.99,SSW,203,3.4,4.9,49,0.00,,,0.00,WUHU216HW,2013-05-01 17:05:00,
2013-05-01 12:10:00,67.7,47.3,29.99,North,0,2.2,4.3,48,0.00,,,0.00,WUHU216HW,2013-05-01 17:10:00,
2013-05-01 12:15:00,68.8,46.4,29.99,NNE,23,6.0,6.0,45,0.00,,,0.00,WUHU216HW,2013-05-01 17:15:00,
2013-05-01 12:20:00,68.9,47.3,29.99,North,0,2.9,6.0,46,0.00,,,0.00,WUHU216HW,2013-05-01 17:20:00,
2013-05-01 12:25:00,69.5,47.7,29.99,NNE,23,1.8,5.4,46,0.00,,,0.00,WUHU216HW,2013-05-01 17:25:00,
2013-05-01 12:30:00,68.9,46.6,29.99,NNE,23,2.7,4.5,45,0.00,,,0.00,WUHU216HW,2013-05-01 17:30:00,
2013-05-01 12:35:00,68.8,47.6,29.99,WNW,293,2.0,4.5,47,0.00,,,0.00,WUHU216HW,2013-05-01 17:35:00,
2013-05-01 12:40:00,69.1,47.3,30.00,North,0,3.4,4.7,46,0.00,,,0.00,WUHU216HW,2013-05-01 17:40:00,
2013-05-01 12:45:00,69.1,47.3,30.00,NNE,23,3.6,7.4,46,0.00,,,0.00,WUHU216HW,2013-05-01 17:45:00,
2013-05-01 12:50:00,69.5,48.3,30.01,SE,135,1.8,7.4,47,0.00,,,0.00,WUHU216HW,2013-05-01 17:50:00,
2013-05-01 12:55:00,69.7,47.3,30.01,North,0,4.5,4.5,45,0.00,,,0.00,WUHU216HW,2013-05-01 17:55:00,
2013-05-01 13:00:00,69.7,47.9,30.01,North,0,2.7,4.9,46,0.00,,,0.00,WUHU216HW,2013-05-01 18:00:00,
2013-05-01 13:05:00,69.7,47.3,30.01,SW,225,3.6,7.4,45,0.00,,,0.00,WUHU216HW,2013-05-01 18:05:00,
2013-05-01 13:10:00,69.5,48.3,30.02,North,0,4.3,7.4,47,0.00,,,0.00,WUHU216HW,2013-05-01 18:10:00,
2013-05-01 13:15:00,69.7,48.4,30.02,North,0,1.8,5.1,47,0.00,,,0.00,WUHU216HW,2013-05-01 18:15:00,
2013-05-01 13:20:00,70.0,48.2,30.02,NNE,23,1.1,5.1,46,0.00,,,0.00,WUHU216HW,2013-05-01 18:20:00,
2013-05-01 13:25:00,70.2,48.3,30.02,NNE,23,3.4,3.4,46,0.00,,,0.00,WUHU216HW,2013-05-01 18:25:00,
2013-05-01 13:30:00,70.0,48.8,30.02,NNE,23,1.8,3.4,47,0.00,,,0.00,WUHU216HW,2013-05-01 18:30:00,
2013-05-01 13:35:00,70.0,48.8,30.02,NW,315,2.5,6.3,47,0.00,,,0.00,WUHU216HW,2013-05-01 18:35:00,
2013-05-01 13:40:00,70.2,49.0,30.02,South,180,4.5,6.9,47,0.00,,,0.00,WUHU216HW,2013-05-01 18:40:00,
2013-05-01 13:45:00,70.4,49.2,30.03,WNW,293,4.0,6.9,47,0.00,,,0.00,WUHU216HW,2013-05-01 18:45:00,
2013-05-01 13:50:00,70.6,49.9,30.03,SSW,203,3.1,4.7,48,0.00,,,0.00,WUHU216HW,2013-05-01 18:50:00,
2013-05-01 13:55:00,70.4,47.9,30.03,North,0,3.4,4.7,45,0.00,,,0.00,WUHU216HW,2013-05-01 18:55:00,
2013-05-01 14:00:00,70.4,49.2,30.03,South,180,2.5,3.4,47,0.00,,,0.00,WUHU216HW,2013-05-01 19:00:00,
2013-05-01 14:05:00,70.7,48.9,30.04,ESE,113,2.7,4.7,46,0.00,,,0.00,WUHU216HW,2013-05-01 19:05:00,
2013-05-01 14:10:00,70.6,48.7,30.04,WSW,248,2.2,4.7,46,0.00,,,0.00,WUHU216HW,2013-05-01 19:10:00,
2013-05-01 14:15:00,70.9,48.4,30.04,North,0,2.0,4.3,45,0.00,,,0.00,WUHU216HW,2013-05-01 19:15:00,
2013-05-01 14:20:00,71.3,48.7,30.04,NW,315,5.4,8.5,45,0.00,,,0.00,WUHU216HW,2013-05-01 19:20:00,
2013-05-01 14:25:00,71.1,48.0,30.03,North,0,3.4,8.5,44,0.00,,,0.00,WUHU216HW,2013-05-01 19:25:00,
2013-05-01 14:30:00,71.3,48.2,30.03,West,270,0.2,4.7,44,0.00,,,0.00,WUHU216HW,2013-05-01 19:30:00,
2013-05-01 14:35:00,72.0,49.4,30.03,South,180,2.0,4.0,45,0.00,,,0.00,WUHU216HW,2013-05-01 19:35:00,
2013-05-01 14:40:00,72.5,49.9,30.03,North,0,1.3,4.0,45,0.00,,,0.00,WUHU216HW,2013-05-01 19:40:00,
2013-05-01 14:45:00,72.5,48.7,30.03,NE,45,2.7,4.0,43,0.00,,,0.00,WUHU216HW,2013-05-01 19:45:00,
2013-05-01 14:50:00,72.7,49.4,30.03,WNW,293,2.2,4.0,44,0.00,,,0.00,WUHU216HW,2013-05-01 19:50:00,
2013-05-01 14:55:00,73.1,49.1,30.04,NNE,23,0.9,2.7,43,0.00,,,0.00,WUHU216HW,2013-05-01 19:55:00,
2013-05-01 15:00:00,73.4,48.9,30.04,North,0,1.1,3.8,42,0.00,,,0.00,WUHU216HW,2013-05-01 20:00:00,
2013-05-01 15:05:00,73.1,48.0,30.04,NNE,23,2.0,4.9,41,0.00,,,0.00,WUHU216HW,2013-05-01 20:05:00,
2013-05-01 15:10:00,72.7,48.2,30.04,South,180,4.9,6.3,42,0.00,,,0.00,WUHU216HW,2013-05-01 20:10:00,
2013-05-01 15:15:00,72.5,48.1,30.04,SE,135,3.6,6.3,42,0.00,,,0.00,WUHU216HW,2013-05-01 20:15:00,
2013-05-01 15:20:00,72.7,48.2,30.04,NW,315,8.9,8.9,42,0.00,,,0.00,WUHU216HW,2013-05-01 20:20:00,
2013-05-01 15:25:00,73.1,49.1,30.04,WNW,293,4.0,8.9,43,0.00,,,0.00,WUHU216HW,2013-05-01 20:25:00,
2013-05-01 15:30:00,74.2,49.6,30.04,North,0,4.0,6.0,42,0.00,,,0.00,WUHU216HW,2013-05-01 20:30:00,
2013-05-01 15:35:00,74.0,48.8,30.04,WSW,248,5.4,5.4,41,0.00,,,0.00,WUHU216HW,2013-05-01 20:35:00,
2013-05-01 15:40:00,74.5,49.3,30.04,South,180,2.0,5.4,41,0.00,,,0.00,WUHU216HW,2013-05-01 20:40:00,
2013-05-01 15:45:00,74.5,48.7,30.04,North,0,5.4,5.4,40,0.00,,,0.00,WUHU216HW,2013-05-01 20:45:00,
2013-05-01 15:50:00,74.2,48.3,30.04,North,0,3.1,5.4,40,0.00,,,0.00,WUHU216HW,2013-05-01 20:50:00,
2013-05-01 15:55:00,74.0,48.8,30.04,SW,225,2.0,4.7,41,0.00,,,0.00,WUHU216HW,2013-05-01 20:55:00,
2013-05-01 16:00:00,73.8,48.6,30.04,NE,45,0.9,4.7,41,0.00,,,0.00,WUHU216HW,2013-05-01 21:00:00,
2013-05-01 16:05:00,74.2,49.0,30.04,North,0,1.1,3.4,41,0.00,,,0.00,WUHU216HW,2013-05-01 21:05:00,
2013-05-01 16:10:00,74.3,48.5,30.05,NNW,338,3.4,4.0,40,0.00,,,0.00,WUHU216HW,2013-05-01 21:10:00,
2013-05-01 16:15:00,74.0,48.2,30.04,NW,315,7.2,7.2,40,0.00,,,0.00,WUHU216HW,2013-05-01 21:15:00,
2013-05-01 16:20:00,73.6,48.4,30.05,SE,135,3.4,9.8,41,0.00,,,0.00,WUHU216HW,2013-05-01 21:20:00,
2013-05-01 16:25:00,74.2,49.0,30.05,North,0,2.2,9.8,41,0.00,,,0.00,WUHU216HW,2013-05-01 21:25:00,
2013-05-01 16:30:00,74.2,48.3,30.05,NNE,23,3.4,4.5,40,0.00,,,0.00,WUHU216HW,2013-05-01 21:30:00,
2013-05-01 16:35:00,73.8,48.6,30.05,NNE,23,1.6,6.7,41,0.00,,,0.00,WUHU216HW,2013-05-01 21:35:00,
2013-05-01 16:40:00,71.8,46.8,30.05,North,0,2.5,6.7,41,0.00,,,0.00,WUHU216HW,2013-05-01 21:40:00,
2013-05-01 16:45:00,71.3,48.2,30.05,North,0,2.5,5.1,44,0.00,,,0.00,WUHU216HW,2013-05-01 21:45:00,
2013-05-01 16:50:00,71.3,47.0,30.05,North,0,3.4,4.0,42,0.00,,,0.00,WUHU216HW,2013-05-01 21:50:00,
2013-05-01 16:55:00,69.7,46.1,30.05,WNW,293,6.7,6.7,43,0.00,,,0.00,WUHU216HW,2013-05-01 21:55:00,
2013-05-01 17:00:00,68.6,46.3,30.06,North,0,4.0,6.7,45,0.00,,,0.00,WUHU216HW,2013-05-01 22:00:00,
2013-05-01 17:05:00,68.2,45.4,30.05,SW,225,7.4,7.4,44,0.00,,,0.00,WUHU216HW,2013-05-01 22:05:00,
2013-05-01 17:10:00,67.1,45.6,30.06,South,180,5.4,7.4,46,0.00,,,0.00,WUHU216HW,2013-05-01 22:10:00,
2013-05-01 17:15:00,67.5,46.5,30.06,NW,315,4.7,5.4,47,0.00,,,0.00,WUHU216HW,2013-05-01 22:15:00,
2013-05-01 17:20:00,67.5,45.9,30.05,ESE,113,5.1,6.7,46,0.00,,,0.00,WUHU216HW,2013-05-01 22:20:00,
2013-05-01 17:25:00,68.0,45.8,30.06,SW,225,7.2,7.2,45,0.00,,,0.00,WUHU216HW,2013-05-01 22:25:00,
2013-05-01 17:30:00,68.9,47.3,30.06,North,0,2.9,8.3,46,0.00,,,0.00,WUHU216HW,2013-05-01 22:30:00,
2013-05-01 17:35:00,68.8,45.3,30.06,NNE,23,5.4,8.3,43,0.00,,,0.00,WUHU216HW,2013-05-01 22:35:00,
2013-05-01 17:40:00,68.0,45.2,30.06,ESE,113,6.5,8.5,44,0.00,,,0.00,WUHU216HW,2013-05-01 22:40:00,
2013-05-01 17:45:00,68.0,45.8,30.06,South,180,6.0,8.5,45,0.00,,,0.00,WUHU216HW,2013-05-01 22:45:00,
2013-05-01 17:50:00,67.3,45.2,30.06,ESE,113,4.5,6.3,45,0.00,,,0.00,WUHU216HW,2013-05-01 22:50:00,
2013-05-01 17:55:00,67.0,45.5,30.06,SE,135,6.3,6.3,46,0.00,,,0.00,WUHU216HW,2013-05-01 22:55:00,
2013-05-01 18:00:00,66.6,44.6,30.06,ESE,113,4.7,6.3,45,0.00,,,0.00,WUHU216HW,2013-05-01 23:00:00,
2013-05-01 18:05:00,66.4,44.4,30.06,North,0,7.6,7.6,45,0.00,,,0.00,WUHU216HW,2013-05-01 23:05:00,
2013-05-01 18:10:00,65.5,44.1,30.06,NW,315,7.2,7.6,46,0.00,,,0.00,WUHU216HW,2013-05-01 23:10:00,
2013-05-01 18:15:00,64.1,43.9,30.07,SW,225,5.1,7.4,48,0.00,,,0.00,WUHU216HW,2013-05-01 23:15:00,
2013-05-01 18:20:00,61.9,42.5,30.07,WNW,293,3.4,6.3,49,0.00,,,0.00,WUHU216HW,2013-05-01 23:20:00,
2013-05-01 18:25:00,60.3,42.6,30.07,South,180,6.5,6.5,52,0.00,,,0.00,WUHU216HW,2013-05-01 23:25:00,
2013-05-01 18:30:00,59.0,42.4,30.08,ESE,113,3.4,6.5,54,0.00,,,0.00,WUHU216HW,2013-05-01 23:30:00,
2013-05-01 18:35:00,58.0,42.3,30.08,South,180,6.3,7.6,56,0.00,,,0.00,WUHU216HW,2013-05-01 23:35:00,
2013-05-01 18:40:00,57.2,41.7,30.09,East,90,5.4,7.6,56,0.00,,,0.00,WUHU216HW,2013-05-01 23:40:00,
2013-05-01 18:45:00,56.5,41.4,30.09,ENE,68,4.7,7.2,57,0.00,,,0.00,WUHU216HW,2013-05-01 23:45:00,
2013-05-01 18:50:00,55.1,41.0,30.08,ESE,113,7.4,7.4,59,0.00,,,0.00,WUHU216HW,2013-05-01 23:50:00,
2013-05-01 18:55:00,54.0,40.9,30.09,WNW,293,5.6,9.2,61,0.00,,,0.00,WUHU216HW,2013-05-01 23:55:00,
2013-05-01 19:00:00,53.1,40.4,30.10,NW,315,6.0,9.2,62,0.00,,,0.00,WUHU216HW,2013-05-02 00:00:00,
2013-05-01 19:05:00,52.4,40.2,30.10,SW,225,6.3,7.8,63,0.00,,,0.00,WUHU216HW,2013-05-02 00:05:00,
2013-05-01 19:10:00,51.7,39.9,30.10,North,0,6.9,7.6,64,0.00,,,0.00,WUHU216HW,2013-05-02 00:10:00,
2013-05-01 19:15:00,51.3,39.9,30.10,South,180,6.3,7.6,65,0.00,,,0.00,WUHU216HW,2013-05-02 00:15:00,
2013-05-01 19:20:00,50.8,39.8,30.11,South,180,3.6,7.6,66,0.00,,,0.00,WUHU216HW,2013-05-02 00:20:00,
2013-05-01 19:25:00,50.0,39.1,30.11,North,0,6.7,8.1,66,0.00,,,0.00,WUHU216HW,2013-05-02 00:25:00,
2013-05-01 19:30:00,49.7,39.2,30.11,SW,225,7.6,8.1,67,0.00,,,0.00,WUHU216HW,2013-05-02 00:30:00,
2013-05-01 19:35:00,49.3,39.2,30.11,NNW,338,5.4,7.6,68,0.00,,,0.00,WUHU216HW,2013-05-02 00:35:00,
2013-05-01 19:40:00,49.0,38.8,30.12,South,180,7.4,7.4,68,0.00,,,0.00,WUHU216HW,2013-05-02 00:40:00,
2013-05-01 19:45:00,48.4,38.7,30.12,North,0,8.1,9.2,69,0.00,,,0.00,WUHU216HW,2013-05-02 00:45:00,
2013-05-01 19:50:00,47.9,38.5,30.13,NW,315,3.6,9.2,70,0.00,,,0.00,WUHU216HW,2013-05-02 00:50:00,
2013-05-01 19:55:00,47.3,38.1,30.12,NNW,338,6.0,6.9,70,0.00,,,0.00,WUHU216HW,2013-05-02 00:55:00,
2013-05-01 20:00:00,46.8,37.9,30.12,South,180,6.0,6.9,71,0.00,,,0.00,WUHU216HW,2013-05-02 01:00:00,
2013-05-01 20:05:00,46.4,37.6,30.13,ESE,113,4.5,6.9,71,0.00,,,0.00,WUHU216HW,2013-05-02 01:05:00,
2013-05-01 20:10:00,46.1,37.6,30.13,NE,45,5.1,7.4,72,0.00,,,0.00,WUHU216HW,2013-05-02 01:10:00,
2013-05-01 20:14:00,45.7,37.3,30.13,East,90,4.3,7.8,72,0.00,,,0.00,WUHU216HW,2013-05-02 01:14:00,
2013-05-01 20:19:00,45.4,36.9,30.13,SW,225,7.2,8.1,72,0.00,,,0.00,WUHU216HW,2013-05-02 01:19:00,
2013-05-01 20:24:00,45.2,36.7,30.14,SE,135,6.7,8.1,72,0.00,,,0.00,WUHU216HW,2013-05-02 01:24:00,
2013-05-01 20:29:00,45.0,36.6,30.14,North,0,6.9,7.2,72,0.00,,,0.00,WUHU216HW,2013-05-02 01:29:00,
2013-05-01 20:34:00,44.8,36.6,30.14,SW,225,4.7,6.9,73,0.00,,,0.00,WUHU216HW,2013-05-02 01:34:00,
2013-05-01 20:39:00,44.5,36.4,30.14,SE,135,5.6,8.3,73,0.00,,,0.00,WUHU216HW,2013-05-02 01:39:00,
2013-05-01 20:44:00,44.5,36.4,30.15,SE,135,3.6,8.3,73,0.00,,,0.00,WUHU216HW,2013-05-02 01:44:00,
2013-05-01 20:49:00,44.3,36.2,30.15,ESE,113,6.9,6.9,73,0.00,,,0.00,WUHU216HW,2013-05-02 01:49:00,
2013-05-01 20:54:00,44.1,36.4,30.15,SW,225,6.9,7.6,74,0.00,,,0.00,WUHU216HW,2013-05-02 01:54:00,
2013-05-01 20:59:00,43.9,35.8,30.15,SW,225,5.8,9.8,73,0.00,,,0.00,WUHU216HW,2013-05-02 01:59:00,
2013-05-01 21:04:00,43.9,36.2,30.15,SSE,158,4.9,9.8,74,0.00,,,0.00,WUHU216HW,2013-05-02 02:04:00,
2013-05-01 21:09:00,43.9,36.2,30.16,South,180,2.9,6.9,74,0.00,,,0.00,WUHU216HW,2013-05-02 02:09:00,
2013-05-01 21:14:00,43.7,35.6,30.16,West,270,4.7,7.6,73,0.00,,,0.00,WUHU216HW,2013-05-02 02:14:00,
2013-05-01 21:19:00,43.6,35.8,30.15,WNW,293,5.1,8.1,74,0.00,,,0.00,WUHU216HW,2013-05-02 02:19:00,
2013-05-01 21:24:00,43.6,35.8,30.16,South,180,2.9,8.1,74,0.00,,,0.00,WUHU216HW,2013-05-02 02:24:00,
2013-05-01 21:29:00,43.6,35.8,30.17,NW,315,6.3,6.9,74,0.00,,,0.00,WUHU216HW,2013-05-02 02:29:00,
2013-05-01 21:34:00,43.4,35.6,30.16,SW,225,7.2,7.2,74,0.00,,,0.00,WUHU216HW,2013-05-02 02:34:00,
2013-05-01 21:39:00,43.2,35.5,30.16,North,0,6.9,7.2,74,0.00,,,0.00,WUHU216HW,2013-05-02 02:39:00,
2013-05-01 21:44:00,43.0,35.3,30.16,ESE,113,8.1,8.1,74,0.00,,,0.00,WUHU216HW,2013-05-02 02:44:00,
2013-05-01 21:49:00,43.0,35.7,30.16,North,0,4.5,8.1,75,0.00,,,0.00,WUHU216HW,2013-05-02 02:49:00,
2013-05-01 21:54:00,42.8,35.5,30.17,NW,315,5.8,6.5,75,0.00,,,0.00,WUHU216HW,2013-05-02 02:54:00,
2013-05-01 21:59:00,42.7,35.3,30.16,North,0,5.4,6.5,75,0.00,,,0.00,WUHU216HW,2013-05-02 02:59:00,
2013-05-01 22:04:00,42.5,35.1,30.16,SE,135,5.1,6.5,75,0.00,,,0.00,WUHU216HW,2013-05-02 03:04:00,
2013-05-01 22:09:00,42.5,35.1,30.16,NE,45,5.4,5.4,75,0.00,,,0.00,WUHU216HW,2013-05-02 03:09:00,
2013-05-01 22:14:00,42.3,34.9,30.16,North,0,3.6,5.4,75,0.00,,,0.00,WUHU216HW,2013-05-02 03:14:00,
2013-05-01 22:19:00,42.1,35.1,30.17,WNW,293,3.4,5.1,76,0.00,,,0.00,WUHU216HW,2013-05-02 03:19:00,
2013-05-01 22:24:00,42.1,34.7,30.17,SE,135,3.4,6.9,75,0.00,,,0.00,WUHU216HW,2013-05-02 03:24:00,
2013-05-01 22:29:00,41.9,34.9,30.16,NE,45,2.2,6.9,76,0.00,,,0.00,WUHU216HW,2013-05-02 03:29:00,
2013-05-01 22:34:00,41.8,35.0,30.16,South,180,3.8,7.8,77,0.00,,,0.00,WUHU216HW,2013-05-02 03:34:00,
2013-05-01 22:39:00,41.6,34.8,30.16,WNW,293,4.0,7.8,77,0.00,,,0.00,WUHU216HW,2013-05-02 03:39:00,
2013-05-01 22:44:00,41.6,34.8,30.16,ENE,68,3.4,6.3,77,0.00,,,0.00,WUHU216HW,2013-05-02 03:44:00,
2013-05-01 22:49:00,41.4,34.7,30.16,West,270,1.8,6.3,77,0.00,,,0.00,WUHU216HW,2013-05-02 03:49:00,
2013-05-01 22:54:00,41.4,34.7,30.16,WNW,293,7.6,8.3,77,0.00,,,0.00,WUHU216HW,2013-05-02 03:54:00,
2013-05-01 22:59:00,41.0,34.3,30.15,ENE,68,3.8,8.3,77,0.00,,,0.00,WUHU216HW,2013-05-02 03:59:00,
2013-05-01 23:01:00,41.0,34.3,30.15,NE,45,2.0,8.3,77,0.00,,,0.00,WUHU216HW,2013-05-02 04:01:00,
2013-05-01 23:06:00,40.9,34.1,30.16,WNW,293,4.0,6.5,77,0.00,,,0.00,WUHU216HW,2013-05-02 04:06:00,
2013-05-01 23:11:00,40.7,33.9,30.15,SE,135,3.8,5.1,77,0.00,,,0.00,WUHU216HW,2013-05-02 04:11:00,
2013-05-01 23:16:00,40.7,33.9,30.15,SW,225,4.0,5.8,77,0.00,,,0.00,WUHU216HW,2013-05-02 04:16:00,
2013-05-01 23:21:00,40.7,33.9,30.15,WSW,248,3.6,5.8,77,0.00,,,0.00,WUHU216HW,2013-05-02 04:21:00,
2013-05-01 23:26:00,40.5,34.1,30.15,North,0,5.6,5.6,78,0.00,,,0.00,WUHU216HW,2013-05-02 04:26:00,
2013-05-01 23:31:00,40.5,34.1,30.15,NE,45,4.9,6.3,78,0.00,,,0.00,WUHU216HW,2013-05-02 04:31:00,
2013-05-01 23:36:00,40.5,34.1,30.15,SW,225,5.1,6.3,78,0.00,,,0.00,WUHU216HW,2013-05-02 04:36:00,
2013-05-01 23:41:00,40.5,34.1,30.15,SSE,158,4.9,5.4,78,0.00,,,0.00,WUHU216HW,2013-05-02 04:41:00,
2013-05-01 23:46:00,40.5,34.1,30.15,NE,45,3.4,4.9,78,0.00,,,0.00,WUHU216HW,2013-05-02 04:46:00,
2013-05-01 23:51:00,40.5,34.1,30.15,ESE,113,4.0,4.0,78,0.00,,,0.00,WUHU216HW,2013-05-02 04:51:00,
2013-05-01 23:56:00,40.5,34.1,30.15,WNW,293,4.7,4.7,78,0.00,,,0.00,WUHU216HW,2013-05-02 04:56:00,